Location: Battery Park City
(40.7115°N, 74.0163°W)
Time: 10:43:00
(UTC+00:00)

CZ-4 R/B - Pass Details

Date: 08 December 2019
Orbit: 533 x 598 km, 97.7° (Epoch: 25 January)

Event Time Altitude Azimuth Distance (km) Brightness Sun altitude
Rises 23:26:27 0° 173° (S) 2,723 4.9 -21.6°
Reaches altitude 10° 23:28:36 10° 176° (S) 1,823 4.0 -22.0°
Maximum altitude 23:32:30 66° 258° (WSW) 601 1.6 -22.8°
Drops below altitude 10° 23:36:23 10° 342° (NNW) 1,808 4.0 -23.5°
Sets 23:38:31 0° 345° (NNW) 2,698 4.9 -23.9°
